Weather observations for the past three days for
Sheboygan County Memorial Airport
Imperial (Metric)
Date Time (cdt) Wind (mph) Vis. (mi.) Weather Sky Cond. Temperature (ºF) Relative Humidity Wind Chill (°F) Heat Index (°F) Pressure Precipitation (in)
Air Dwpt 6 hour altimeter (in) sea level (mb) 1 hr 3 hr 6 hr
Max. Min.
24 10:53 N 10 9.00 Overcast BKN024 OVC035 72 57.9 61% 30.16 1021.1
24 09:53 N 7 10.00 Mostly Cloudy SCT018 SCT023 BKN037 70 59 68% 30.16 1020.9
24 08:53 N 9 10.00 Overcast BKN013 OVC037 66.9 59 76% 30.15 1020.8
24 07:53 N 7 10.00 Overcast FEW009 OVC032 64.9 59 81% 30.14 1020.5
24 06:53 N 7 10.00 Overcast FEW008 OVC031 64 59 66 64 84% 30.13 1020.1
24 05:53 NW 6 10.00 Overcast OVC026 64.9 60.1 84% 30.11 1019.4
24 04:53 NW 6 10.00 Overcast OVC030 64 60.1 87% 30.09 1018.7
24 03:53 N 6 10.00 Mostly Cloudy BKN032 64 60.1 87% 30.08 1018.3
24 02:53 N 6 10.00 Overcast OVC030 66 60.1 81% 30.07 1017.9
24 01:53 N 6 10.00 Overcast OVC031 66 60.1 81% 30.07 1017.7
24 00:53 N 8 10.00 Overcast BKN024 OVC030 66 61 72 64.9 84% 30.08 1018.1
23 23:53 NW 5 10.00 Mostly Cloudy BKN034 66 61 84% 30.07 1018.0
23 22:53 N 7 10.00 Partly Cloudy SCT028 66 61 84% 30.06 1017.6
23 21:53 N 10 10.00 Overcast BKN013 OVC022 69.1 62.1 78% 30.05 1017.3
23 20:53 NE 6 10.00 Overcast OVC017 70 63 79% 30.04 1016.8
23 19:53 N 9 10.00 Mostly Cloudy BKN065 71.1 63 76% 30.02 1016.1
23 18:53 N 10 10.00 Fair CLR 72 63 82 72 73% 30.01 1015.9
23 17:53 N 12 10.00 Overcast BKN019 BKN026 OVC039 73 64.9 76% 29.99 1015.4
23 16:53 NW 9 10.00 Mostly Cloudy BKN085 77 64.9 66% 79 29.96 1014.2
23 14:53 NW 6 10.00 Mostly Cloudy SCT029 SCT039 BKN075 82 64.9 56% 84 29.96 1014.1
23 13:53 W 9 10.00 A Few Clouds FEW028 FEW060 82 64.9 56% 84 29.96 1014.1
23 12:53 NW 7 10.00 Overcast BKN027 BKN035 OVC043 78.1 64.9 78.1 68 64% 80 29.97 1014.5
23 11:53 S 6 10.00 Overcast BKN028 BKN036 OVC075 75 64 69% 77 29.98 1014.9
23 10:53 SW 6 10.00 Overcast OVC055 73 64 74% 29.99 1015.0
23 09:53 S 5 10.00 Overcast OVC060 73 66 79% 29.98 1015.0
23 08:53 Calm 10.00 Overcast SCT048 BKN055 OVC110 73 64 74% 29.98 1014.9
23 07:53 W 5 10.00 Partly Cloudy FEW046 SCT055 73 64.9 76% 29.98 1014.8
23 06:53 Calm 10.00 Fair CLR 68 64 68 63 87% 29.97 1014.6
23 05:53 S 5 10.00 Partly Cloudy SCT065 64.9 61 87% 29.96 1014.1
23 04:53 SW 5 10.00 Fair CLR 64 59 84% 29.96 1014.2
23 03:53 SW 3 10.00 Fair CLR 63 57.9 84% 29.95 1014.0
23 02:53 W 3 10.00 Fair CLR 64 57 78% 29.97 1014.4
23 01:53 S 7 10.00 A Few Clouds FEW095 64.9 57 76% 29.97 1014.5
23 00:53 SW 5 10.00 A Few Clouds FEW075 64 57 75.9 63 78% 29.98 1014.9
22 23:53 SW 3 10.00 Partly Cloudy SCT085 64.9 55.9 73% 29.98 1015.0
22 22:53 Calm 10.00 Partly Cloudy SCT100 66 55.9 70% 29.98 1014.9
22 21:53 Calm 10.00 Fair CLR 66.9 55 66% 29.99 1015.2
22 20:53 Calm 6.00 Light Rain CLR 68 55 63% 29.98 1014.8
22 19:53 S 6 10.00 Fair CLR 73.9 53.1 48% 29.98 1014.7
22 18:53 S 7 10.00 Fair CLR 75.9 55 82 75.9 48% 78 29.97 1014.6
22 17:53 S 7 10.00 Fair CLR 78.1 54 43% 79 29.98 1014.8
22 16:53 SE 7 10.00 Fair CLR 78.1 55 45% 79 29.99 1015.2
22 15:53 SE 9 10.00 Fair CLR 79 54 42% 79 30 1015.6
22 14:53 SE 7 10.00 Fair CLR 80.1 55 42% 80 30.02 1016.2
22 13:53 SE 9 10.00 Fair CLR 80.1 54 41% 80 30.03 1016.5
22 12:53 E 7 10.00 Fair CLR 80.1 54 82 63 41% 80 30.04 1016.8
22 11:53 E 8 10.00 Fair CLR 80.1 54 41% 80 30.05 1017.3
22 10:53 Vrbl 5 10.00 Fair CLR 79 55.9 45% 80 30.06 1017.6
22 09:53 N 3 10.00 Fair CLR 75.9 54 47% 78 30.07 1017.8
22 08:53 NE 5 10.00 Fair CLR 72 54 53% 30.07 1018.0
22 07:53 N 5 10.00 Fair CLR 69.1 54 59% 30.07 1018.0
22 06:53 Calm 10.00 Fair CLR 63 57 63 57.9 81% 30.07 1018.0
22 05:53 NW 3 10.00 Fair CLR 59 54 83% 30.07 1018.1
22 04:53 Calm 10.00 Light Rain OVC060 60.1 55.9 86% 30.07 1018.0
22 03:53 Calm 10.00 Fair CLR 59 55 87% 30.07 1017.9
22 02:53 Calm 10.00 Fair CLR 60.1 57 90% 30.07 1018.0
22 01:53 NW 5 10.00 Fair CLR 62.1 57.9 86% 30.07 1018.1
22 00:53 Calm 10.00 Fair CLR 63 59 73 62.1 87% 30.09 1018.7
21 23:53 NW 5 10.00 Fair CLR 63 60.1 90% 30.11 1019.2
21 22:53 Calm 10.00 Fair CLR 63 60.1 90% 30.11 1019.5
21 21:53 Calm 10.00 Fair CLR 66 61 84% 30.12 1019.6
21 20:53 Calm 3.00 Light Rain Fog/Mist CLR 66 63 90% 30.11 1019.4
21 19:53 NE 7 10.00 Fair CLR 68 61 78% 30.1 1019.1
21 18:53 NE 7 10.00 Fair CLR 73 60.1 80.1 73 64% 30.1 1019.0
21 17:53 NE 10 10.00 Fair CLR 75 60.1 60% 77 30.1 1018.9
21 16:53 NE 12 10.00 Fair CLR 77 55 47% 78 30.1 1019.1
21 15:53 NE 10 10.00 Fair CLR 79 57.9 49% 80 30.11 1019.3
21 14:53 NE 10 10.00 A Few Clouds FEW060 79 59 50% 80 30.13 1019.7
21 13:53 NE 9 10.00 A Few Clouds FEW060 79 57.9 49% 80 30.13 1019.8
21 12:53 NE 10 10.00 Overcast OVC060 78.1 59 78.1 66.9 52% 79 30.13 1019.9
21 11:53 E 9 10.00 A Few Clouds FEW047 75.9 62.1 62% 78 30.14 1020.2
Date Time (cdt) Wind (mph) Vis. (mi.) Weather Sky Cond. Air Dwpt Max. Min. Relative Humidity Wind Chill (°F) Heat Index (°F) altimeter (in) sea level (mb) 1 hr 3 hr 6 hr
6 hour
Temperature (ºF) Pressure Precipitation (in)